Weather History for Jackson, WY

Change the Weather History Date:

Friday, November 8, 2013

  Actual Average Record
Temperature  
Mean Temperature 40 °F -  
Max Temperature 44 °F 40 °F 57 °F (1965)
Min Temperature 35 °F 18 °F -4 °F (1990)
Degree Days  
Heating Degree Days 26    
Moisture  
Dew Point 25 °F    
Average Humidity 62    
Maximum Humidity 100    
Minimum Humidity 27    
Precipitation  
Precipitation 0.03 in - - ()
Sea Level Pressure  
Sea Level Pressure 29.98 in    
Wind  
Wind Speed 12 mph (SSW)    
Max Wind Speed 26 mph    
Max Gust Speed 33 mph    
Visibility 10 miles    
Events      
Averages and records for this station are not official NWS values.
T = Trace of Precipitation, MM = Missing Value Source: NWS Daily Summary

Daily Weather History Graph

Daily Weather History Graph

Search for Another Location

Airport:

Trip Planner

Search our weather history database for the weather conditions in past years. The results will help you decide how hot, cold, wet, or windy it might be!

Date:

Astronomy

Nov. 08, 2013 Rise Set
Actual Time 7:08 AM MST 5:04 PM MST
Civil Twilight 6:37 AM MST 5:35 PM MST
Nautical Twilight 6:03 AM MST 6:09 PM MST
Astronomical Twilight 5:29 AM MST 6:42 PM MST
Moon 12:06 PM MST (11/8) 10:30 PM MST (11/8)
Length of Visible Light 10h 57m
Length of Day
9h 56m
Waxing Crescent, 34% of the Moon is Illuminated
Nov 8
Waxing Crescent
Nov 9
First Quarter
Nov 17
Full
Nov 25
Last Quarter
Dec 2
New

Hourly Weather History & Observations

Time (MST) Temp. Windchill Dew Point Humidity Pressure Visibility Wind Dir Wind Speed Gust Speed Precip Events Conditions
12:15 AM 35.6 °F 30.7 °F 35.6 °F 100% 29.90 in 10.0 mi South 5.8 mph - N/A   Overcast
12:55 AM 37.4 °F 30.8 °F 33.8 °F 87% 29.89 in 10.0 mi SW 9.2 mph - N/A   Overcast
1:15 AM 37.4 °F 31.4 °F 35.6 °F 93% 29.88 in 10.0 mi WSW 8.1 mph - N/A   Overcast
1:35 AM 37.4 °F 30.8 °F 33.8 °F 87% 29.90 in 10.0 mi SSW 9.2 mph - N/A   Mostly Cloudy
1:55 AM 37.4 °F 27.2 °F 33.8 °F 87% 29.89 in 10.0 mi South 19.6 mph 25.3 mph N/A   Mostly Cloudy
2:15 AM 37.4 °F 27.2 °F 35.6 °F 93% 29.88 in 10.0 mi South 19.6 mph 25.3 mph 0.01 in   Overcast
2:35 AM 35.6 °F 25.5 °F 35.6 °F 100% 29.90 in 7.0 mi South 17.3 mph 24.2 mph 0.02 in   Overcast
2:55 AM 35.6 °F 26.2 °F 35.6 °F 100% 29.90 in 10.0 mi South 15.0 mph 21.9 mph 0.03 in   Overcast
3:15 AM 35.6 °F 28.6 °F 33.8 °F 93% 29.89 in 10.0 mi SW 9.2 mph - N/A   Overcast
3:35 AM 37.4 °F 27.8 °F 33.8 °F 87% 29.89 in 10.0 mi SW 17.3 mph 29.9 mph N/A   Overcast
4:15 AM 39.2 °F 28.7 °F 30.2 °F 70% 29.88 in 10.0 mi WSW 23.0 mph 33.4 mph N/A   Overcast
4:35 AM 39.2 °F 31.2 °F 32.0 °F 75% 29.89 in 10.0 mi WSW 13.8 mph 26.5 mph N/A   Overcast
4:55 AM 39.2 °F 31.6 °F 30.2 °F 70% 29.90 in 10.0 mi WSW 12.7 mph 27.6 mph N/A   Overcast
5:15 AM 39.2 °F 29.8 °F 30.2 °F 70% 29.90 in 10.0 mi WSW 18.4 mph 33.4 mph N/A   Mostly Cloudy
5:35 AM 39.2 °F 28.0 °F 28.4 °F 65% 29.89 in 10.0 mi WSW 26.5 mph 32.2 mph N/A   Scattered Clouds
5:55 AM 39.2 °F 30.8 °F 26.6 °F 61% 29.91 in 10.0 mi SW 15.0 mph 32.2 mph N/A   Partly Cloudy
6:15 AM 39.2 °F 30.5 °F 26.6 °F 61% 29.91 in 10.0 mi SW 16.1 mph 26.5 mph N/A   Partly Cloudy
6:35 AM 39.2 °F 31.2 °F 26.6 °F 61% 29.93 in 10.0 mi SSW 13.8 mph 23.0 mph N/A   Partly Cloudy
6:51 AM 37.4 °F 28.5 °F 26.6 °F 65% 29.93 in 10.0 mi SSW 15.0 mph - N/A   Scattered Clouds
7:55 AM 37.4 °F 28.5 °F 24.8 °F 60% 29.97 in 10.0 mi South 15.0 mph 21.9 mph N/A   Scattered Clouds
8:51 AM 37.4 °F 28.2 °F 21.2 °F 52% 29.99 in 10.0 mi South 16.1 mph 24.2 mph N/A   Mostly Cloudy
9:54 AM 37.4 °F 27.8 °F 17.6 °F 45% 30.02 in 10.0 mi South 17.3 mph 25.3 mph N/A   Mostly Cloudy
10:53 AM 39.2 °F 31.6 °F 10.4 °F 31% 30.04 in 10.0 mi SSW 12.7 mph 23.0 mph N/A   Mostly Cloudy
11:58 AM 42.8 °F 35.4 °F 10.4 °F 27% 30.03 in 10.0 mi South 15.0 mph 21.9 mph N/A   Scattered Clouds
12:53 PM 42.8 °F 34.5 °F 15.8 °F 34% 30.01 in 10.0 mi South 18.4 mph 25.3 mph N/A   Scattered Clouds
1:51 PM 44.6 °F 36.9 °F 15.8 °F 31% 30.01 in 10.0 mi South 18.4 mph 25.3 mph N/A   Scattered Clouds
2:58 PM 41.0 °F 34.3 °F 15.8 °F 36% 30.02 in 10.0 mi SW 11.5 mph - N/A   Scattered Clouds
3:53 PM 39.2 °F 33.0 °F 19.4 °F 45% 30.03 in 10.0 mi SSW 9.2 mph - N/A   Scattered Clouds
4:51 PM 39.2 °F 30.8 °F 19.4 °F 45% 30.05 in 10.0 mi South 15.0 mph 26.5 mph N/A   Overcast
5:51 PM 37.4 °F 28.5 °F 17.6 °F 45% 30.06 in 10.0 mi South 15.0 mph 21.9 mph N/A   Overcast
6:51 PM 37.4 °F 28.5 °F 21.2 °F 52% 30.06 in 10.0 mi South 15.0 mph 26.5 mph N/A   Overcast
7:51 PM 37.4 °F - 19.4 °F 48% 30.06 in 10.0 mi Calm Calm - N/A   Overcast
9:16 PM 37.4 °F 31.4 °F 19.4 °F 48% 30.08 in 10.0 mi SW 8.1 mph - N/A   Overcast
9:35 PM 37.4 °F 31.4 °F 19.4 °F 48% 30.08 in 10.0 mi SSW 8.1 mph - N/A   Overcast
9:55 PM 37.4 °F 30.8 °F 21.2 °F 52% 30.08 in 10.0 mi SSW 9.2 mph - N/A   Overcast
10:15 PM 37.4 °F 30.8 °F 21.2 °F 52% 30.09 in 10.0 mi SSW 9.2 mph - N/A   Overcast
10:35 PM 37.4 °F 29.8 °F 21.2 °F 52% 30.09 in 10.0 mi South 11.5 mph - N/A   Overcast
10:55 PM 37.4 °F 32.1 °F 21.2 °F 52% 30.09 in 10.0 mi SSW 6.9 mph - N/A   Overcast
11:15 PM 37.4 °F 33.8 °F 21.2 °F 52% 30.09 in 10.0 mi South 4.6 mph - N/A   Overcast
11:35 PM 37.4 °F 34.9 °F 23.0 °F 56% 30.08 in 10.0 mi South 3.5 mph - N/A   Overcast
11:55 PM 37.4 °F 33.8 °F 21.2 °F 52% 30.08 in 10.0 mi SW 4.6 mph - N/A   Overcast